Weather History for KTWF - July, 2013

Change the Weather History Date:

Saturday, July 6, 2013

  Actual Average Record
Temperature  
Mean Temperature 75 °F -  
Max Temperature 89 °F 88 °F 105 °F (2007)
Min Temperature 60 °F 56 °F 38 °F (1986)
Degree Days  
Heating Degree Days 0 0  
Month to date heating degree days 0 3  
Since 1 June heating degree days 55 90  
Since 1 July heating degree days 0 3  
Cooling Degree Days 10 7  
Month to date cooling degree days 95 39  
Year to date cooling degree days 293 148  
Since 1 June cooling degree days 268 126  
Growing Degree Days 24 (Base 50)    
Moisture  
Dew Point 51 °F    
Average Humidity 49    
Maximum Humidity 68    
Minimum Humidity 29    
Precipitation  
Precipitation 0.00 in 0.01 in 0.47 in (2006)
Month to date precipitation 0.15 0.08  
Year to date precipitation 3.18 6.34  
Sea Level Pressure  
Sea Level Pressure 29.71 in    
Wind  
Wind Speed 6 mph (South)    
Max Wind Speed 16 mph    
Max Gust Speed 20 mph    
Visibility 10 miles    
Events      
T = Trace of Precipitation, MM = Missing Value Source: NWS Daily Summary

Daily Weather History Graph

Daily Weather History Graph

Search for Another Location

Airport or City:

Trip Planner

Search our weather history database for the weather conditions in past years. The results will help you decide how hot, cold, wet, or windy it might be!

Date:

Astronomy

Jul. 06, 2013 Rise Set
Actual Time 6:07 AM MDT 9:17 PM MDT
Civil Twilight 5:33 AM MDT 9:51 PM MDT
Nautical Twilight 4:49 AM MDT 10:36 PM MDT
Astronomical Twilight 3:55 AM MDT 11:28 PM MDT
Moon 4:58 AM MDT (7/6) 8:00 PM MDT (7/6)
Length of Visible Light 16h 18m
Length of Day
15h 10m
Waning Crescent, 2% of the Moon is Illuminated
Jul 6
Waning Crescent
Jul 8
New
Jul 15
First Quarter
Jul 22
Full
Jul 29
Last Quarter

Hourly Weather History & Observations

Time (MDT) Temp. Heat Index Dew Point Humidity Pressure Visibility Wind Dir Wind Speed Gust Speed Precip Events Conditions
12:53 AM 70.0 °F - 53.1 °F 55% 29.69 in 10.0 mi South 10.4 mph - N/A   Clear
1:53 AM 68.0 °F - 53.1 °F 59% 29.69 in 10.0 mi South 9.2 mph - N/A   Clear
2:53 AM 69.1 °F - 52.0 °F 54% 29.73 in 10.0 mi SW 9.2 mph - N/A   Clear
3:53 AM 71.1 °F - 53.1 °F 53% 29.72 in 10.0 mi SSW 15.0 mph - N/A   Clear
4:53 AM 66.0 °F - 48.0 °F 52% 29.75 in 10.0 mi SW 12.7 mph - N/A   Clear
5:53 AM 63.0 °F - 48.0 °F 58% 29.76 in 10.0 mi SSW 9.2 mph - N/A   Clear
6:53 AM 60.1 °F - 46.0 °F 60% 29.77 in 10.0 mi SSW 8.1 mph - N/A   Clear
7:53 AM 68.0 °F - 45.0 °F 43% 29.76 in 10.0 mi SSW 4.6 mph - N/A   Clear
8:53 AM 70.0 °F - 42.1 °F 36% 29.78 in 10.0 mi West 4.6 mph - N/A   Clear
9:53 AM 73.0 °F - 45.0 °F 37% 29.79 in 10.0 mi NNW 6.9 mph - N/A   Clear
10:53 AM 73.9 °F - 45.0 °F 35% 29.78 in 10.0 mi Calm Calm - N/A   Clear
11:53 AM 78.1 °F - 46.9 °F 33% 29.76 in 10.0 mi NNE 3.5 mph - N/A   Clear
12:53 PM 81.0 °F - 50.0 °F 34% 29.74 in 10.0 mi Variable 4.6 mph - N/A   Clear
1:53 PM 82.9 °F - 50.0 °F 32% 29.72 in 10.0 mi Variable 4.6 mph - N/A   Clear
2:53 PM 84.9 °F - 52.0 °F 32% 29.70 in 10.0 mi North 5.8 mph - N/A   Clear
3:53 PM 84.9 °F - 52.0 °F 32% 29.68 in 10.0 mi Calm Calm - N/A   Clear
4:53 PM 87.1 °F 85.9 °F 57.0 °F 36% 29.66 in 10.0 mi ENE 6.9 mph - N/A   Clear
5:53 PM 88.0 °F 85.7 °F 53.1 °F 30% 29.64 in 10.0 mi ENE 4.6 mph - N/A   Clear
6:53 PM 86.0 °F 85.4 °F 59.0 °F 40% 29.65 in 10.0 mi East 4.6 mph - N/A   Clear
7:53 PM 87.1 °F - 51.1 °F 29% 29.63 in 10.0 mi East 3.5 mph - N/A   Clear
8:53 PM 79.0 °F - 57.0 °F 47% 29.66 in 10.0 mi Calm Calm - N/A   Clear
9:53 PM 69.1 °F - 57.0 °F 65% 29.69 in 10.0 mi Calm Calm - N/A   Clear
10:53 PM 66.0 °F - 55.9 °F 70% 29.70 in 10.0 mi SSE 4.6 mph - N/A   Clear
11:53 PM 70.0 °F - 51.1 °F 51% 29.68 in 10.0 mi South 8.1 mph - N/A   Clear